Year,Month,Day,Hour,Minute,Value (Times are PST for temperature in C)
2008,09,15,00,00,15.70
2008,09,15,00,01,15.70
2008,09,15,00,02,15.70
2008,09,15,00,03,15.70
2008,09,15,00,04,15.70
2008,09,15,00,05,15.70
2008,09,15,00,06,15.70
2008,09,15,00,07,15.70
2008,09,15,00,08,15.70
2008,09,15,00,09,15.60
2008,09,15,00,10,15.60
2008,09,15,00,11,15.60
2008,09,15,00,12,15.60
2008,09,15,00,13,15.60
2008,09,15,00,14,15.50
2008,09,15,00,15,15.50
2008,09,15,00,16,15.50
2008,09,15,00,17,15.50
2008,09,15,00,18,15.50
2008,09,15,00,19,15.50
2008,09,15,00,20,15.40
2008,09,15,00,21,15.40
2008,09,15,00,22,15.40
2008,09,15,00,23,15.40
2008,09,15,00,24,15.40
2008,09,15,00,25,15.40
2008,09,15,00,26,15.30
2008,09,15,00,27,15.30
2008,09,15,00,28,15.30
2008,09,15,00,29,15.30
2008,09,15,00,30,15.30
2008,09,15,00,31,15.30
2008,09,15,00,32,15.30
2008,09,15,00,33,15.20
2008,09,15,00,34,15.20
2008,09,15,00,35,15.20
2008,09,15,00,36,15.10
2008,09,15,00,37,15.10
2008,09,15,00,38,15.10
2008,09,15,00,39,15.10
2008,09,15,00,40,15.10
2008,09,15,00,41,15.10
2008,09,15,00,42,15.10
2008,09,15,00,43,15.10
2008,09,15,00,44,15.10
2008,09,15,00,45,15.10
2008,09,15,00,46,15.10
2008,09,15,00,47,15.10
2008,09,15,00,48,15.10
2008,09,15,00,49,15.10
2008,09,15,00,50,15.10
2008,09,15,00,51,15.00
2008,09,15,00,52,15.00
2008,09,15,00,53,15.00
2008,09,15,00,54,15.00
2008,09,15,00,55,15.00
2008,09,15,00,56,14.90
2008,09,15,00,57,14.90
2008,09,15,00,58,14.90
2008,09,15,00,59,14.90
2008,09,15,01,00,14.80
2008,09,15,01,01,14.80
2008,09,15,01,02,14.80
2008,09,15,01,03,14.80
2008,09,15,01,04,14.80
2008,09,15,01,05,14.80
2008,09,15,01,06,14.80
2008,09,15,01,07,14.80
2008,09,15,01,08,14.80
2008,09,15,01,09,14.80
2008,09,15,01,10,14.80
2008,09,15,01,11,14.80
2008,09,15,01,12,14.80
2008,09,15,01,13,14.80
2008,09,15,01,14,14.80
2008,09,15,01,15,14.80
2008,09,15,01,16,14.80
2008,09,15,01,17,14.80
2008,09,15,01,18,14.80
2008,09,15,01,19,14.80
2008,09,15,01,20,14.80
2008,09,15,01,21,14.80
2008,09,15,01,22,14.80
2008,09,15,01,23,14.80
2008,09,15,01,24,14.80
2008,09,15,01,25,14.80
2008,09,15,01,26,14.80
2008,09,15,01,27,14.80
2008,09,15,01,28,14.80
2008,09,15,01,29,14.80
2008,09,15,01,30,14.80
2008,09,15,01,31,14.80
2008,09,15,01,32,14.80
2008,09,15,01,33,14.80
2008,09,15,01,34,14.80
2008,09,15,01,35,14.80
2008,09,15,01,36,14.80
2008,09,15,01,37,14.80
2008,09,15,01,38,14.80
2008,09,15,01,39,14.80
2008,09,15,01,40,14.80
2008,09,15,01,41,14.70
2008,09,15,01,42,14.70
2008,09,15,01,43,14.70
2008,09,15,01,44,14.70
2008,09,15,01,45,14.70
2008,09,15,01,46,14.60
2008,09,15,01,47,14.60
2008,09,15,01,48,14.60
2008,09,15,01,49,14.60
2008,09,15,01,50,14.60
2008,09,15,01,51,14.60
2008,09,15,01,52,14.60
2008,09,15,01,53,14.60
2008,09,15,01,54,14.60
2008,09,15,01,55,14.60
2008,09,15,01,56,14.60
2008,09,15,01,57,14.60
2008,09,15,01,58,14.60
2008,09,15,01,59,14.60
2008,09,15,02,00,14.60
2008,09,15,02,01,14.60
2008,09,15,02,02,14.60
2008,09,15,02,03,14.60
2008,09,15,02,04,14.60
2008,09,15,02,05,14.70
2008,09,15,02,06,14.70
2008,09,15,02,07,14.70
2008,09,15,02,08,14.70
2008,09,15,02,09,14.70
2008,09,15,02,10,14.70
2008,09,15,02,11,14.70
2008,09,15,02,12,14.70
2008,09,15,02,13,14.70
2008,09,15,02,14,14.70
2008,09,15,02,15,14.70
2008,09,15,02,16,14.70
2008,09,15,02,17,14.70
2008,09,15,02,18,14.70
2008,09,15,02,19,14.70
2008,09,15,02,20,14.70
2008,09,15,02,21,14.80
2008,09,15,02,22,14.80
2008,09,15,02,23,14.70
2008,09,15,02,24,14.70
2008,09,15,02,25,14.70
2008,09,15,02,26,14.70
2008,09,15,02,27,14.70
2008,09,15,02,28,14.70
2008,09,15,02,29,14.60
2008,09,15,02,30,14.60
2008,09,15,02,31,14.60
2008,09,15,02,32,14.50
2008,09,15,02,33,14.50
2008,09,15,02,34,14.50
2008,09,15,02,35,14.50
2008,09,15,02,36,14.50
2008,09,15,02,37,14.50
2008,09,15,02,38,14.50
2008,09,15,02,39,14.50
2008,09,15,02,40,14.50
2008,09,15,02,41,14.40
2008,09,15,02,42,14.40
2008,09,15,02,43,14.50
2008,09,15,02,44,14.50
2008,09,15,02,45,14.50
2008,09,15,02,46,14.60
2008,09,15,02,47,14.70
2008,09,15,02,48,14.70
2008,09,15,02,49,14.80
2008,09,15,02,50,14.80
2008,09,15,02,51,14.90
2008,09,15,02,52,15.00
2008,09,15,02,53,15.00
2008,09,15,02,54,15.10
2008,09,15,02,55,15.10
2008,09,15,02,56,15.20
2008,09,15,02,57,15.20
2008,09,15,02,58,15.30
2008,09,15,02,59,15.30
2008,09,15,03,00,15.30
2008,09,15,03,01,15.30
2008,09,15,03,02,15.30
2008,09,15,03,03,15.30
2008,09,15,03,04,15.20
2008,09,15,03,05,15.20
2008,09,15,03,06,15.20
2008,09,15,03,07,15.20
2008,09,15,03,08,15.10
2008,09,15,03,09,15.00
2008,09,15,03,10,15.00
2008,09,15,03,11,14.90
2008,09,15,03,12,14.90
2008,09,15,03,13,14.80
2008,09,15,03,14,14.80
2008,09,15,03,15,14.80
2008,09,15,03,16,14.70
2008,09,15,03,17,14.60
2008,09,15,03,18,14.60
2008,09,15,03,19,14.60
2008,09,15,03,20,14.50
2008,09,15,03,21,14.50
2008,09,15,03,22,14.40
2008,09,15,03,23,14.30
2008,09,15,03,24,14.30
2008,09,15,03,25,14.20
2008,09,15,03,26,14.20
2008,09,15,03,27,14.20
2008,09,15,03,28,14.20
2008,09,15,03,29,14.20
2008,09,15,03,30,14.20
2008,09,15,03,31,14.20
2008,09,15,03,32,14.20
2008,09,15,03,33,14.20
2008,09,15,03,34,14.20
2008,09,15,03,35,14.20
2008,09,15,03,36,14.20
2008,09,15,03,37,14.20
2008,09,15,03,38,14.30
2008,09,15,03,39,14.30
2008,09,15,03,40,14.30
2008,09,15,03,41,14.30
2008,09,15,03,42,14.30
2008,09,15,03,43,14.30
2008,09,15,03,44,14.30
2008,09,15,03,45,14.30
2008,09,15,03,46,14.30
2008,09,15,03,47,14.30
2008,09,15,03,48,14.20
2008,09,15,03,49,14.20
2008,09,15,03,50,14.20
2008,09,15,03,51,14.20
2008,09,15,03,52,14.20
2008,09,15,03,53,14.20
2008,09,15,03,54,14.20
2008,09,15,03,55,14.20
2008,09,15,03,56,14.20
2008,09,15,03,57,14.20
2008,09,15,03,58,14.20
2008,09,15,03,59,14.20
2008,09,15,04,00,14.20
2008,09,15,04,01,14.20
2008,09,15,04,02,14.20
2008,09,15,04,03,14.20
2008,09,15,04,04,14.20
2008,09,15,04,05,14.20
2008,09,15,04,06,14.20
2008,09,15,04,07,14.30
2008,09,15,04,08,14.30
2008,09,15,04,09,14.40
2008,09,15,04,10,14.40
2008,09,15,04,11,14.40
2008,09,15,04,12,14.40
2008,09,15,04,13,14.40
2008,09,15,04,14,14.40
2008,09,15,04,15,14.40
2008,09,15,04,16,14.40
2008,09,15,04,17,14.40
2008,09,15,04,18,14.40
2008,09,15,04,19,14.40
2008,09,15,04,20,14.40
2008,09,15,04,21,14.40
2008,09,15,04,22,14.40
2008,09,15,04,23,14.40
2008,09,15,04,24,14.40
2008,09,15,04,25,14.40
2008,09,15,04,26,14.40
2008,09,15,04,27,14.40
2008,09,15,04,28,14.40
2008,09,15,04,29,14.40
2008,09,15,04,30,14.40
2008,09,15,04,31,14.40
2008,09,15,04,32,14.40
2008,09,15,04,33,14.40
2008,09,15,04,34,14.40
2008,09,15,04,35,14.40
2008,09,15,04,36,14.30
2008,09,15,04,37,14.30
2008,09,15,04,38,14.30
2008,09,15,04,39,14.30
2008,09,15,04,40,14.30
2008,09,15,04,41,14.30
2008,09,15,04,42,14.20
2008,09,15,04,43,14.20
2008,09,15,04,44,14.20
2008,09,15,04,45,14.20
2008,09,15,04,46,14.20
2008,09,15,04,47,14.20
2008,09,15,04,48,14.20
2008,09,15,04,49,14.20
2008,09,15,04,50,14.10
2008,09,15,04,51,14.10
2008,09,15,04,52,14.10
2008,09,15,04,53,14.10
2008,09,15,04,54,14.10
2008,09,15,04,55,14.00
2008,09,15,04,56,14.00
2008,09,15,04,57,14.00
2008,09,15,04,58,14.00
2008,09,15,04,59,14.00
2008,09,15,05,00,13.90
2008,09,15,05,01,13.90
2008,09,15,05,02,13.90
2008,09,15,05,03,13.90
2008,09,15,05,04,13.90
2008,09,15,05,05,13.90
2008,09,15,05,06,13.80
2008,09,15,05,07,13.80
2008,09,15,05,08,13.80
2008,09,15,05,09,13.80
2008,09,15,05,10,13.80
2008,09,15,05,11,13.70
2008,09,15,05,12,13.70
2008,09,15,05,13,13.70
2008,09,15,05,14,13.70
2008,09,15,05,15,13.70
2008,09,15,05,16,13.70
2008,09,15,05,17,13.70
2008,09,15,05,18,13.60
2008,09,15,05,19,13.60
2008,09,15,05,20,13.60
2008,09,15,05,21,13.60
2008,09,15,05,22,13.60
2008,09,15,05,23,13.60
2008,09,15,05,24,13.60
2008,09,15,05,25,13.60
2008,09,15,05,26,13.60
2008,09,15,05,27,13.60
2008,09,15,05,28,13.50
2008,09,15,05,29,13.50
2008,09,15,05,30,13.50
2008,09,15,05,31,13.50
2008,09,15,05,32,13.50
2008,09,15,05,33,13.40
2008,09,15,05,34,13.40
2008,09,15,05,35,13.40
2008,09,15,05,36,13.40
2008,09,15,05,37,13.30
2008,09,15,05,38,13.30
2008,09,15,05,39,13.30
2008,09,15,05,40,13.30
2008,09,15,05,41,13.30
2008,09,15,05,42,13.30
2008,09,15,05,43,13.20
2008,09,15,05,44,13.20
2008,09,15,05,45,13.20
2008,09,15,05,46,13.10
2008,09,15,05,47,13.10
2008,09,15,05,48,13.10
2008,09,15,05,49,13.10
2008,09,15,05,50,13.00
2008,09,15,05,51,13.00
2008,09,15,05,52,13.00
2008,09,15,05,53,13.00
2008,09,15,05,54,13.00
2008,09,15,05,55,12.90
2008,09,15,05,56,12.90
2008,09,15,05,57,12.90
2008,09,15,05,58,12.90
2008,09,15,05,59,12.90
2008,09,15,06,00,12.90
2008,09,15,06,01,12.80
2008,09,15,06,02,12.80
2008,09,15,06,03,12.80
2008,09,15,06,04,12.80
2008,09,15,06,05,12.80
2008,09,15,06,06,12.80
2008,09,15,06,07,12.80
2008,09,15,06,08,12.80
2008,09,15,06,09,12.80
2008,09,15,06,10,12.80
2008,09,15,06,11,12.80
2008,09,15,06,12,12.80
2008,09,15,06,13,12.80
2008,09,15,06,14,12.80
2008,09,15,06,15,12.70
2008,09,15,06,16,12.70
2008,09,15,06,17,12.70
2008,09,15,06,18,12.70
2008,09,15,06,19,12.70
2008,09,15,06,20,12.60
2008,09,15,06,21,12.60
2008,09,15,06,22,12.60
2008,09,15,06,23,12.50
2008,09,15,06,24,12.50
2008,09,15,06,25,12.50
2008,09,15,06,26,12.50
2008,09,15,06,27,12.50
2008,09,15,06,28,12.50
2008,09,15,06,29,12.50
2008,09,15,06,30,12.50
2008,09,15,06,31,12.50
2008,09,15,06,32,12.50
2008,09,15,06,33,12.50
2008,09,15,06,34,12.50
2008,09,15,06,35,12.50
2008,09,15,06,36,12.50
2008,09,15,06,37,12.50
2008,09,15,06,38,12.50
2008,09,15,06,39,12.50
2008,09,15,06,40,12.50
2008,09,15,06,41,12.50
2008,09,15,06,42,12.50
2008,09,15,06,43,12.40
2008,09,15,06,44,12.40
2008,09,15,06,45,12.40
2008,09,15,06,46,12.30
2008,09,15,06,47,12.30
2008,09,15,06,48,12.30
2008,09,15,06,49,12.30
2008,09,15,06,50,12.20
2008,09,15,06,51,12.20
2008,09,15,06,52,12.20
2008,09,15,06,53,12.10
2008,09,15,06,54,12.10
2008,09,15,06,55,12.10
2008,09,15,06,56,12.10
2008,09,15,06,57,12.10
2008,09,15,06,58,12.00
2008,09,15,06,59,12.00
2008,09,15,07,00,12.00
2008,09,15,07,01,12.00
2008,09,15,07,02,12.00
2008,09,15,07,03,12.00
2008,09,15,07,04,12.00
2008,09,15,07,05,12.00
2008,09,15,07,06,12.10
2008,09,15,07,07,12.10
2008,09,15,07,08,12.10
2008,09,15,07,09,12.10
2008,09,15,07,10,12.10
2008,09,15,07,11,12.10
2008,09,15,07,12,12.10
2008,09,15,07,13,12.10
2008,09,15,07,14,12.10
2008,09,15,07,15,12.10
2008,09,15,07,16,12.10
2008,09,15,07,17,12.10
2008,09,15,07,18,12.10
2008,09,15,07,19,12.10
2008,09,15,07,20,12.10
2008,09,15,07,21,12.10
2008,09,15,07,22,12.10
2008,09,15,07,23,12.20
2008,09,15,07,24,12.20
2008,09,15,07,25,12.30
2008,09,15,07,26,12.30
2008,09,15,07,27,12.30
2008,09,15,07,28,12.30
2008,09,15,07,29,12.30
2008,09,15,07,30,12.30
2008,09,15,07,31,12.30
2008,09,15,07,32,12.30
2008,09,15,07,33,12.40
2008,09,15,07,34,12.40
2008,09,15,07,35,12.40
2008,09,15,07,36,12.40
2008,09,15,07,37,12.40
2008,09,15,07,38,12.50
2008,09,15,07,39,12.50
2008,09,15,07,40,12.50
2008,09,15,07,41,12.50
2008,09,15,07,42,12.60
2008,09,15,07,43,12.60
2008,09,15,07,44,12.60
2008,09,15,07,45,12.70
2008,09,15,07,46,12.70
2008,09,15,07,47,12.80
2008,09,15,07,48,12.80
2008,09,15,07,49,12.80
2008,09,15,07,50,12.80
2008,09,15,07,51,12.90
2008,09,15,07,52,12.90
2008,09,15,07,53,12.90
2008,09,15,07,54,13.00
2008,09,15,07,55,13.00
2008,09,15,07,56,13.00
2008,09,15,07,57,13.10
2008,09,15,07,58,13.10
2008,09,15,07,59,13.20
2008,09,15,08,00,13.20
2008,09,15,08,01,13.30
2008,09,15,08,02,13.30
2008,09,15,08,03,13.30
2008,09,15,08,04,13.40
2008,09,15,08,05,13.40
2008,09,15,08,06,13.50
2008,09,15,08,07,13.50
2008,09,15,08,08,13.50
2008,09,15,08,09,13.60
2008,09,15,08,10,13.60
2008,09,15,08,11,13.70
2008,09,15,08,12,13.80
2008,09,15,08,13,13.90
2008,09,15,08,14,13.90
2008,09,15,08,15,14.00
2008,09,15,08,16,14.10
2008,09,15,08,17,14.20
2008,09,15,08,18,14.20
2008,09,15,08,19,14.30
2008,09,15,08,20,14.40
2008,09,15,08,21,14.50
2008,09,15,08,22,14.50
2008,09,15,08,23,14.60
2008,09,15,08,24,14.60
2008,09,15,08,25,14.70
2008,09,15,08,26,14.80
2008,09,15,08,27,14.80
2008,09,15,08,28,14.90
2008,09,15,08,29,14.90
2008,09,15,08,30,15.00
2008,09,15,08,31,15.10
2008,09,15,08,32,15.20
2008,09,15,08,33,15.30
2008,09,15,08,34,15.30
2008,09,15,08,35,15.40
2008,09,15,08,36,15.50
2008,09,15,08,37,15.60
2008,09,15,08,38,15.60
2008,09,15,08,39,15.70
2008,09,15,08,40,15.80
2008,09,15,08,41,15.80
2008,09,15,08,42,15.80
2008,09,15,08,43,15.90
2008,09,15,08,44,15.90
2008,09,15,08,45,16.00
2008,09,15,08,46,15.90
2008,09,15,08,47,16.00
2008,09,15,08,48,16.10
2008,09,15,08,49,16.10
2008,09,15,08,50,16.10
2008,09,15,08,51,16.10
2008,09,15,08,52,16.10
2008,09,15,08,53,16.20
2008,09,15,08,54,16.20
2008,09,15,08,55,16.20
2008,09,15,08,56,16.20
2008,09,15,08,57,16.20
2008,09,15,08,58,16.20
2008,09,15,08,59,16.20
2008,09,15,09,00,16.20
2008,09,15,09,01,16.30
2008,09,15,09,02,16.30
2008,09,15,09,03,16.30
2008,09,15,09,04,16.30
2008,09,15,09,05,16.30
2008,09,15,09,06,16.40
2008,09,15,09,07,16.40
2008,09,15,09,08,16.40
2008,09,15,09,09,16.50
2008,09,15,09,10,16.60
2008,09,15,09,11,16.60
2008,09,15,09,12,16.60
2008,09,15,09,13,16.70
2008,09,15,09,14,16.70
2008,09,15,09,15,16.70
2008,09,15,09,16,16.70
2008,09,15,09,17,16.70
2008,09,15,09,18,16.70
2008,09,15,09,19,16.70
2008,09,15,09,20,16.70
2008,09,15,09,21,16.70
2008,09,15,09,22,16.70
2008,09,15,09,23,16.70
2008,09,15,09,24,16.80
2008,09,15,09,25,16.80
2008,09,15,09,26,16.80
2008,09,15,09,27,16.80
2008,09,15,09,28,16.80
2008,09,15,09,29,16.80
2008,09,15,09,30,16.80
2008,09,15,09,31,16.80
2008,09,15,09,32,16.80
2008,09,15,09,33,16.90
2008,09,15,09,34,16.90
2008,09,15,09,35,17.00
2008,09,15,09,36,17.00
2008,09,15,09,37,17.00
2008,09,15,09,38,17.00
2008,09,15,09,39,17.00
2008,09,15,09,40,17.10
2008,09,15,09,41,17.10
2008,09,15,09,42,17.10
2008,09,15,09,43,17.00
2008,09,15,09,44,17.00
2008,09,15,09,45,17.10
2008,09,15,09,46,17.10
2008,09,15,09,47,17.10
2008,09,15,09,48,17.20
2008,09,15,09,49,17.20
2008,09,15,09,50,17.20
2008,09,15,09,51,17.20
2008,09,15,09,52,17.20
2008,09,15,09,53,17.30
2008,09,15,09,54,17.30
2008,09,15,09,55,17.30
2008,09,15,09,56,17.40
2008,09,15,09,57,17.40
2008,09,15,09,58,17.40
2008,09,15,09,59,17.50
2008,09,15,10,00,17.50
2008,09,15,10,01,17.50
2008,09,15,10,02,17.50
2008,09,15,10,03,17.60
2008,09,15,10,04,17.60
2008,09,15,10,05,17.70
2008,09,15,10,06,17.70
2008,09,15,10,07,17.70
2008,09,15,10,08,17.70
2008,09,15,10,09,17.70
2008,09,15,10,10,17.80
2008,09,15,10,11,17.80
2008,09,15,10,12,17.90
2008,09,15,10,13,17.90
2008,09,15,10,14,17.90
2008,09,15,10,15,17.90
2008,09,15,10,16,17.90
2008,09,15,10,17,17.90
2008,09,15,10,18,18.00
2008,09,15,10,19,18.10
2008,09,15,10,20,18.10
2008,09,15,10,21,18.10
2008,09,15,10,22,18.10
2008,09,15,10,23,18.10
2008,09,15,10,24,18.20
2008,09,15,10,25,18.20
2008,09,15,10,26,18.20
2008,09,15,10,27,18.30
2008,09,15,10,28,18.30
2008,09,15,10,29,18.30
2008,09,15,10,30,18.30
2008,09,15,10,31,18.30
2008,09,15,10,32,18.40
2008,09,15,10,33,18.40
2008,09,15,10,34,18.50
2008,09,15,10,35,18.60
2008,09,15,10,36,18.60
2008,09,15,10,37,18.60
2008,09,15,10,38,18.60
2008,09,15,10,39,18.70
2008,09,15,10,40,18.70
2008,09,15,10,41,18.70
2008,09,15,10,42,18.70
2008,09,15,10,43,18.70
2008,09,15,10,44,18.70
2008,09,15,10,45,18.80
2008,09,15,10,46,18.90
2008,09,15,10,47,19.00
2008,09,15,10,48,19.10
2008,09,15,10,49,19.10
2008,09,15,10,50,19.10
2008,09,15,10,51,19.10
2008,09,15,10,52,19.00
2008,09,15,10,53,18.90
2008,09,15,10,54,18.90
2008,09,15,10,55,18.90
2008,09,15,10,56,18.90
2008,09,15,10,57,18.90
2008,09,15,10,58,18.90
2008,09,15,10,59,19.00
2008,09,15,11,00,19.10
2008,09,15,11,01,19.10
2008,09,15,11,02,19.10
2008,09,15,11,03,19.20
2008,09,15,11,04,19.20
2008,09,15,11,05,19.20
2008,09,15,11,06,19.20
2008,09,15,11,07,19.10
2008,09,15,11,08,19.10
2008,09,15,11,09,19.10
2008,09,15,11,10,19.10
2008,09,15,11,11,19.10
2008,09,15,11,12,19.10
2008,09,15,11,13,19.10
2008,09,15,11,14,19.10
2008,09,15,11,15,19.10
2008,09,15,11,16,19.10
2008,09,15,11,17,19.10
2008,09,15,11,18,19.10
2008,09,15,11,19,19.10
2008,09,15,11,20,19.10
2008,09,15,11,21,19.10
2008,09,15,11,22,19.10
2008,09,15,11,23,19.10
2008,09,15,11,24,19.10
2008,09,15,11,25,19.10
2008,09,15,11,26,19.20
2008,09,15,11,27,19.20
2008,09,15,11,28,19.30
2008,09,15,11,29,19.30
2008,09,15,11,30,19.30
2008,09,15,11,31,19.30
2008,09,15,11,32,19.40
2008,09,15,11,33,19.40
2008,09,15,11,34,19.50
2008,09,15,11,35,19.60
2008,09,15,11,36,19.60
2008,09,15,11,37,19.50
2008,09,15,11,38,19.50
2008,09,15,11,39,19.50
2008,09,15,11,40,19.50
2008,09,15,11,41,19.40
2008,09,15,11,42,19.40
2008,09,15,11,43,19.40
2008,09,15,11,44,19.50
2008,09,15,11,45,19.60
2008,09,15,11,46,19.60
2008,09,15,11,47,19.70
2008,09,15,11,48,19.80
2008,09,15,11,49,19.80
2008,09,15,11,50,19.90
2008,09,15,11,51,19.90
2008,09,15,11,52,19.90
2008,09,15,11,53,19.90
2008,09,15,11,54,19.90
2008,09,15,11,55,19.90
2008,09,15,11,56,19.90
2008,09,15,11,57,19.90
2008,09,15,11,58,19.90
2008,09,15,11,59,20.10
2008,09,15,12,00,20.20
2008,09,15,12,01,20.20
2008,09,15,12,02,20.20
2008,09,15,12,03,20.20
2008,09,15,12,04,20.20
2008,09,15,12,05,20.20
2008,09,15,12,06,20.20
2008,09,15,12,07,20.20
2008,09,15,12,08,20.30
2008,09,15,12,09,20.30
2008,09,15,12,10,20.30
2008,09,15,12,11,20.30
2008,09,15,12,12,20.40
2008,09,15,12,13,20.40
2008,09,15,12,14,20.40
2008,09,15,12,15,20.40
2008,09,15,12,16,20.40
2008,09,15,12,17,20.40
2008,09,15,12,18,20.40
2008,09,15,12,19,20.40
2008,09,15,12,20,20.40
2008,09,15,12,21,20.30
2008,09,15,12,22,20.40
2008,09,15,12,23,20.40
2008,09,15,12,24,20.40
2008,09,15,12,25,20.50
2008,09,15,12,26,20.60
2008,09,15,12,27,20.60
2008,09,15,12,28,20.70
2008,09,15,12,29,20.70
2008,09,15,12,30,20.80
2008,09,15,12,31,20.80
2008,09,15,12,32,20.90
2008,09,15,12,33,20.90
2008,09,15,12,34,20.90
2008,09,15,12,35,20.90
2008,09,15,12,36,20.90
2008,09,15,12,37,20.90
2008,09,15,12,38,21.00
2008,09,15,12,39,21.00
2008,09,15,12,40,21.10
2008,09,15,12,41,21.20
2008,09,15,12,42,21.20
2008,09,15,12,43,21.20
2008,09,15,12,44,21.10
2008,09,15,12,45,21.10
2008,09,15,12,46,21.20
2008,09,15,12,47,21.10
2008,09,15,12,48,21.20
2008,09,15,12,49,21.20
2008,09,15,12,50,21.10
2008,09,15,12,51,21.00
2008,09,15,12,52,21.00
2008,09,15,12,53,21.10
2008,09,15,12,54,21.20
2008,09,15,12,55,21.30
2008,09,15,12,56,21.40
2008,09,15,12,57,21.40
2008,09,15,12,58,21.60
2008,09,15,12,59,21.60
2008,09,15,13,00,21.60
2008,09,15,13,01,21.70
2008,09,15,13,02,21.80
2008,09,15,13,03,21.90
2008,09,15,13,04,21.90
2008,09,15,13,05,22.00
2008,09,15,13,06,22.00
2008,09,15,13,07,22.00
2008,09,15,13,08,21.90
2008,09,15,13,09,21.80
2008,09,15,13,10,21.70
2008,09,15,13,11,21.70
2008,09,15,13,12,21.70
2008,09,15,13,13,21.70
2008,09,15,13,14,21.70
2008,09,15,13,15,21.80
2008,09,15,13,16,21.90
2008,09,15,13,17,22.10
2008,09,15,13,18,22.20
2008,09,15,13,19,22.30
2008,09,15,13,20,22.30
2008,09,15,13,21,22.30
2008,09,15,13,22,22.30
2008,09,15,13,23,22.10
2008,09,15,13,24,22.10
2008,09,15,13,25,22.10
2008,09,15,13,26,22.10
2008,09,15,13,27,22.20
2008,09,15,13,28,22.20
2008,09,15,13,29,22.20
2008,09,15,13,30,22.20
2008,09,15,13,31,22.10
2008,09,15,13,32,22.00
2008,09,15,13,33,22.10
2008,09,15,13,34,22.10
2008,09,15,13,35,22.10
2008,09,15,13,36,22.10
2008,09,15,13,37,22.10
2008,09,15,13,38,22.20
2008,09,15,13,39,22.30
2008,09,15,13,40,22.40
2008,09,15,13,41,22.40
2008,09,15,13,42,22.30
2008,09,15,13,43,22.30
2008,09,15,13,44,22.30
2008,09,15,13,45,22.30
2008,09,15,13,46,22.30
2008,09,15,13,47,22.30
2008,09,15,13,48,22.40
2008,09,15,13,49,22.40
2008,09,15,13,50,22.40
2008,09,15,13,51,22.40
2008,09,15,13,52,22.40
2008,09,15,13,53,22.40
2008,09,15,13,54,22.50
2008,09,15,13,55,22.50
2008,09,15,13,56,22.60
2008,09,15,13,57,22.70
2008,09,15,13,58,22.70
2008,09,15,13,59,22.80
2008,09,15,14,00,22.80
2008,09,15,14,01,22.90
2008,09,15,14,02,22.90
2008,09,15,14,03,22.90
2008,09,15,14,04,22.90
2008,09,15,14,05,22.90
2008,09,15,14,06,22.90
2008,09,15,14,07,22.90
2008,09,15,14,08,22.90
2008,09,15,14,09,23.00
2008,09,15,14,10,23.10
2008,09,15,14,11,23.10
2008,09,15,14,12,23.10
2008,09,15,14,13,23.10
2008,09,15,14,14,23.20
2008,09,15,14,15,23.30
2008,09,15,14,16,23.30
2008,09,15,14,17,23.30
2008,09,15,14,18,23.20
2008,09,15,14,19,23.20
2008,09,15,14,20,23.10
2008,09,15,14,21,23.10
2008,09,15,14,22,23.10
2008,09,15,14,23,23.20
2008,09,15,14,24,23.30
2008,09,15,14,25,23.30
2008,09,15,14,26,23.30
2008,09,15,14,27,23.30
2008,09,15,14,28,23.20
2008,09,15,14,29,23.30
2008,09,15,14,30,23.30
2008,09,15,14,31,23.40
2008,09,15,14,32,23.50
2008,09,15,14,33,23.40
2008,09,15,14,34,23.50
2008,09,15,14,35,23.60
2008,09,15,14,36,23.60
2008,09,15,14,37,23.60
2008,09,15,14,38,23.60
2008,09,15,14,39,23.50
2008,09,15,14,40,23.40
2008,09,15,14,41,23.30
2008,09,15,14,42,23.30
2008,09,15,14,43,23.30
2008,09,15,14,44,23.40
2008,09,15,14,45,23.40
2008,09,15,14,46,23.50
2008,09,15,14,47,23.60
2008,09,15,14,48,23.60
2008,09,15,14,49,23.70
2008,09,15,14,50,23.70
2008,09,15,14,51,23.80
2008,09,15,14,52,24.00
2008,09,15,14,53,24.10
2008,09,15,14,54,24.10
2008,09,15,14,55,24.20
2008,09,15,14,56,24.30
2008,09,15,14,57,24.20
2008,09,15,14,58,24.10
2008,09,15,14,59,24.10
2008,09,15,15,00,24.00
2008,09,15,15,01,23.90
2008,09,15,15,02,23.90
2008,09,15,15,03,23.80
2008,09,15,15,04,23.80
2008,09,15,15,05,23.80
2008,09,15,15,06,23.80
2008,09,15,15,07,23.70
2008,09,15,15,08,23.70
2008,09,15,15,09,23.70
2008,09,15,15,10,23.80
2008,09,15,15,11,23.80
2008,09,15,15,12,23.80
2008,09,15,15,13,23.80
2008,09,15,15,14,23.80
2008,09,15,15,15,23.80
2008,09,15,15,16,23.80
2008,09,15,15,17,23.80
2008,09,15,15,18,23.90
2008,09,15,15,19,23.90
2008,09,15,15,20,24.10
2008,09,15,15,21,24.10
2008,09,15,15,22,24.10
2008,09,15,15,23,24.10
2008,09,15,15,24,24.10
2008,09,15,15,25,24.10
2008,09,15,15,26,24.10
2008,09,15,15,27,24.10
2008,09,15,15,28,24.10
2008,09,15,15,29,24.10
2008,09,15,15,30,24.20
2008,09,15,15,31,24.20
2008,09,15,15,32,24.20
2008,09,15,15,33,24.20
2008,09,15,15,34,24.20
2008,09,15,15,35,24.20
2008,09,15,15,36,24.30
2008,09,15,15,37,24.20
2008,09,15,15,38,24.20
2008,09,15,15,39,24.30
2008,09,15,15,40,24.30
2008,09,15,15,41,24.30
2008,09,15,15,42,24.40
2008,09,15,15,43,24.40
2008,09,15,15,44,24.30
2008,09,15,15,45,24.30
2008,09,15,15,46,24.20
2008,09,15,15,47,24.20
2008,09,15,15,48,24.30
2008,09,15,15,49,24.40
2008,09,15,15,50,24.40
2008,09,15,15,51,24.40
2008,09,15,15,52,24.40
2008,09,15,15,53,24.40
2008,09,15,15,54,24.40
2008,09,15,15,55,24.40
2008,09,15,15,56,24.50
2008,09,15,15,57,24.50
2008,09,15,15,58,24.40
2008,09,15,15,59,24.40
2008,09,15,16,00,24.50
2008,09,15,16,01,24.50
2008,09,15,16,02,24.60
2008,09,15,16,03,24.70
2008,09,15,16,04,24.80
2008,09,15,16,05,24.90
2008,09,15,16,06,24.90
2008,09,15,16,07,25.00
2008,09,15,16,08,25.10
2008,09,15,16,09,25.10
2008,09,15,16,10,24.80
2008,09,15,16,11,24.30
2008,09,15,16,12,23.90
2008,09,15,16,13,23.60
2008,09,15,16,14,23.10
2008,09,15,16,15,22.70
2008,09,15,16,16,22.40
2008,09,15,16,17,22.10
2008,09,15,16,18,21.80
2008,09,15,16,19,21.60
2008,09,15,16,20,21.50
2008,09,15,16,21,21.30
2008,09,15,16,22,21.10
2008,09,15,16,23,20.90
2008,09,15,16,24,20.80
2008,09,15,16,25,20.70
2008,09,15,16,26,20.60
2008,09,15,16,27,20.60
2008,09,15,16,28,20.60
2008,09,15,16,29,20.60
2008,09,15,16,30,20.70
2008,09,15,16,31,20.80
2008,09,15,16,32,20.80
2008,09,15,16,33,20.90
2008,09,15,16,34,20.90
2008,09,15,16,35,20.90
2008,09,15,16,36,20.90
2008,09,15,16,37,20.90
2008,09,15,16,38,20.90
2008,09,15,16,39,20.80
2008,09,15,16,40,20.80
2008,09,15,16,41,20.90
2008,09,15,16,42,20.90
2008,09,15,16,43,20.90
2008,09,15,16,44,20.80
2008,09,15,16,45,20.80
2008,09,15,16,46,20.80
2008,09,15,16,47,20.80
2008,09,15,16,48,20.80
2008,09,15,16,49,20.80
2008,09,15,16,50,20.80
2008,09,15,16,51,20.90
2008,09,15,16,52,21.00
2008,09,15,16,53,21.00
2008,09,15,16,54,21.20
2008,09,15,16,55,21.30
2008,09,15,16,56,21.40
2008,09,15,16,57,21.50
2008,09,15,16,58,21.60
2008,09,15,16,59,21.70
2008,09,15,17,00,21.70
2008,09,15,17,01,21.70
2008,09,15,17,02,21.70
2008,09,15,17,03,21.60
2008,09,15,17,04,21.60
2008,09,15,17,05,21.60
2008,09,15,17,06,21.60
2008,09,15,17,07,21.60
2008,09,15,17,08,21.50
2008,09,15,17,09,21.30
2008,09,15,17,10,21.30
2008,09,15,17,11,21.30
2008,09,15,17,12,21.30
2008,09,15,17,13,21.40
2008,09,15,17,14,21.40
2008,09,15,17,15,21.40
2008,09,15,17,16,21.50
2008,09,15,17,17,21.50
2008,09,15,17,18,21.40
2008,09,15,17,19,21.40